Regional Weather Roundup
Issued by NWS

Home | Current Version | Previous Version | Graphics & Text | Print | Product List | Glossary On
Versions: 1 2 3 4 5 6 7 8 9 10 11 12 13 14 15 16 17 18 19 20 21 22 23 24 25 26 27 28 29 30 31 32 33 34 35 36 37 38 39 40 41 42 43 44 45 46 47 48 49 50
554
ASUS43 KLOT 241903
RWRIL

ILLINOIS REGIONAL WEATHER ROUNDUP
NATIONAL WEATHER SERVICE CHICAGO/ROMEOVILLE IL
200 PM CDT TUE MAY 24 2016

NOTE: "FAIR" INDICATES FEW OR NO CLOUDS BELOW 12,000 FEET WITH NO
SIGNIFICANT WEATHER AND/OR OBSTRUCTIONS TO VISIBILITY.

* THESE STATIONS ARE NOT UNDER NWS QUALITY CONTROL. THEY ALSO MAY NOT
  REPORT WEATHER SUCH AS PRECIPITATION OR FOG.

ILZ001-002-007-009-015-016-024-242000-
NORTHWEST ILLINOIS

CITY           SKY/WX    TMP DP  RH WIND       PRES   REMARKS
MOLINE         SUNNY     86  59  39 SW12      29.90F HX  85
STERLING*      MOSUNNY   84  60  44 VRB6      29.94F HX  84
$$

ILZ003-004-008-010-011-017-018-242000-
NORTH CENTRAL ILLINOIS

CITY           SKY/WX    TMP DP  RH WIND       PRES   REMARKS
ROCKFORD       PTSUNNY   84  57  39 SW16G23   29.95F HX  83
FREEPORT*      CLOUDY    80  59  48 SW16G22   29.95F HX  81
ROCHELLE*      MOSUNNY   83  57  41 S17G25    29.95F HX  82
$$

ILZ005-006-012>014-019>023-242000-
NORTHEAST ILLINOIS

CITY           SKY/WX    TMP DP  RH WIND       PRES   REMARKS
CHICAGO-OHARE  PTSUNNY   84  53  34 SW18      29.95F HX  82
CHICAGO-MIDWAY PTSUNNY   86  49  27 SW12G18   29.96F HX  83
AURORA         MOSUNNY   86  54  33 S14       29.96F HX  84
LANSING*       SUNNY     85  48  27 SW15G30   29.98F HX  82
WAUKEGAN       MOSUNNY   83  56  39 SW17G24   29.95F HX  82
DUPAGE AIRPORT CLOUDY    84  53  34 SW14      29.96F HX  82
WHEELING       MOSUNNY   84  51  31 S17G24    29.97F HX  82
NORTHERLY ISL    N/A     84  45  25 S15         N/A  HX  82
NORTHERLY ISL    N/A     84  45  25 S15         N/A  HX  82
$$

LMZ740>746-242000-
SOUTHERN LAKE MICHIGAN

STATION/POSITION SKY/WX   TEMP    WIND        PRES    VSBY  WAVE
                          AIR SEA DIR/SP/G                  HT/PER
                          (F)     (DEG/KT/KT) (MB)    (MI)  (FT/S)
SOUTHERN BUOY              53 48  160/ 10/ 10 1015.4          1
WILMETTE HARBOR            70 56  230/  8/ 10   N/A           1/ 2
HARRISON CRIB              80     200/  9/ 10   N/A
BURNHAM HARBOR             84     210/  7/ 16   N/A
CALUMET HARBOR             82     190/ 16/ 26 1014.7F
BURNS HARBOR               81     190/ 12/ 19 1015.9F
MICHIGAN CITY              80     180/ 15/ 17   N/A
MICHIGAN CITY 6N           74 58  260/  4/  6   N/A           0
ST. JOSEPH                 71 60   CALM  /  2   N/A           1
$$

ILZ025>027-034>036-040-047-049-050-058-095>099-242000-
WEST-CENTRAL ILLINOIS

CITY           SKY/WX    TMP DP  RH WIND       PRES   REMARKS
QUINCY         MOSUNNY   81  62  52 SW9       29.96R HX  82
MACOMB*        SUNNY     85  59  40 S9G16     29.96S HX  84
PITTSFIELD*    MOSUNNY   83  63  50 S9        29.95F HX  83
$$

ILZ028>032-037-038-041>044-048-051>054-059>061-242000-
CENTRAL ILLINOIS

CITY           SKY/WX    TMP DP  RH WIND       PRES   REMARKS
BLOOMINGTON    SUNNY     85  59  41 S20       29.97F HX  84
DECATUR        SUNNY     83  58  42 S15       29.99F HX  83
PEORIA         SUNNY     84  59  42 S13G18    29.95F HX  84
SPRINGFIELD    MOSUNNY   83  60  45 S12G23    29.97F HX  83
TAYLORVILLE    NOT AVBL
$$

ILZ033-039-045-046-055>057-062-063-242000-
EAST-CENTRAL ILLINOIS

CITY           SKY/WX    TMP DP  RH WIND       PRES   REMARKS
CHAMPAIGN      MOSUNNY   87  51  28 S17G28    30.00F HX  85
MATTOON        MOSUNNY   80  55  42 S13G20    30.01F HX  80
$$

ILZ079-100>102-242000-
SOUTHWEST ILLINOIS

CITY           SKY/WX    TMP DP  RH WIND       PRES   REMARKS
ALTON          MOSUNNY   81  64  57 MISG      29.99F HX  82
CAHOKIA*       CLOUDY    83  64  52 S8        29.99S HX  84
SPARTA*        MOSUNNY   80  65  60 SE5       30.02F HX  81
$$

ILZ064>066-069>071-074>076-080>082-084>086-088>090-092>094-242000-
SOUTH-CENTRAL ILLINOIS

CITY           SKY/WX    TMP DP  RH WIND       PRES   REMARKS
CARBONDALE     PTSUNNY   79  62  56 S12G21    30.03S HX  80
MARION         PTSUNNY   81  63  54 S14       30.04F HX  82
MT. VERNON     PTSUNNY   81  61  50 SW12G17   30.04S HX  81
SALEM*         MOSUNNY   80  59  49 S10G16    30.02F HX  80
$$

ILZ067-068-072-073-078-083-087-091-242000-
SOUTHEAST ILLINOIS

CITY           SKY/WX    TMP DP  RH WIND       PRES   REMARKS
LAWRENCEVILLE  SUNNY     83  57  41 S17       30.04F HX  82
FLORA*         MOSUNNY   82  59  45 S15       30.04S HX  82
HARRISBURG*    CLOUDY    77  61  56 SE8       30.04F
ROBINSON*      SUNNY     80  58  47 S15       30.04F HX  81
$$

ABBREVIATIONS USED IN REMARKS
   TC - TEMPERATURE IN CELSIUS
  WCI - WIND CHILL INDEX
   HX - HEAT INDEX
  VSB - VISIBILITY
$$





USA.gov is the U.S. government's official web portal to all federal, state and local government web resources and services.